Regional Weather Roundup
Issued by NWS

Home | Current Version | Previous Version | Graphics & Text | Print | Product List | Glossary On
Versions: 1 2 3 4 5 6 7 8 9 10 11 12 13 14 15 16 17 18 19 20 21 22 23 24 25 26 27 28 29 30 31 32 33 34 35 36 37 38 39 40 41 42 43 44 45 46 47 48 49 50
000
ASUS43 KOAX 010210
RWRNE

WEATHER ROUNDUP FOR NEBRASKA
NATIONAL WEATHER SERVICE OMAHA NE
900 PM CDT FRI JUL 31 2015

NOTES: SATELLITE DATA IS BEING USED TO AUGMENT CLOUD COVER ABOVE
       12000 FEET.
       "FAIR" INDICATES FEW OR NO CLOUDS BELOW 12,000 FEET WITH NO
       SIGNIFICANT WEATHER AND/OR OBSTRUCTIONS TO VISIBILITY.

  * THESE STATIONS DO NOT REPORT WEATHER SUCH AS RAIN...SNOW OR FOG.

NEZ001>004-019>022-054>056-010300-
NEBRASKA PANHANDLE

CITY           SKY/WX    TMP DP  RH WIND       PRES   REMARKS
SCOTTSBLUFF    CLEAR     77  60  55 E7        30.14R
ALLIANCE       CLEAR     75  59  57 E8        30.14R
CHADRON        CLEAR     81  55  40 S8        30.08F
KIMBALL        CLEAR     74  52  46 E6        30.19S
SIDNEY         PTCLDY    79  49  34 SE8       30.17R
$$

NEZ057>060-069>072-079>082-010300-
SOUTHWEST NEBRASKA

CITY           SKY/WX    TMP DP  RH WIND       PRES   REMARKS
NORTH PLATTE   PTCLDY    77  66  68 E8        30.08S
IMPERIAL       CLEAR     81  60  48 E6        30.11R
LEXINGTON      CLEAR     76  62  61 E13G23    30.11R
MCCOOK         PTCLDY    85  60  42 S6        30.08R
OGALLALA       CLEAR     80  62  54 E3        30.11S
$$

NEZ005>010-023>029-035>040-094-010300-
NORTH CENTRAL NEBRASKA

CITY           SKY/WX    TMP DP  RH WIND       PRES   REMARKS
VALENTINE      CLEAR     82  59  45 NE9       30.09R
AINSWORTH      CLEAR     79  64  60 E9        30.10R
BROKEN BOW     PTCLDY    77  63  61 SE10      30.11F
O`NEILL        PTCLDY    79  66  64 CALM      30.09R
ORD            MOCLDY    69  63  81 CALM      30.08S
THEDFORD       CLEAR     82  59  44 S7        30.10S
$$

NEZ041-046>049-061>064-073>077-083>087-010300-
SOUTH CENTRAL NEBRASKA

CITY           SKY/WX    TMP DP  RH WIND       PRES   REMARKS
GRAND ISLAND   CLOUDY    69  63  81 SE10      30.08F
AURORA         CLOUDY    70  63  78 S5        30.08F
HASTINGS       MOCLDY    74  56  53 E9G21     30.12R
HEBRON         LGT RAIN  79  51  37 CALM      30.08S
HOLDREGE       CLEAR     72  59  63 E10       30.11R
KEARNEY *      CLEAR     72  59  64 E12       30.12R
YORK           CLOUDY    68  63  83 W12       30.07R
$$

NEZ011>018-030>034-042>045-010300-
NORTHEAST NEBRASKA

CITY           SKY/WX    TMP DP  RH WIND       PRES   REMARKS
NORFOLK        CLEAR     71  62  73 CALM      30.06S
ALBION         CLEAR     71  62  72 CALM      30.08S
BLAIR          PTCLDY    77  71  83 NW6       30.05R
COLUMBUS *     PTCLDY    68  61  77 CALM      30.04F
FREMONT        PTCLDY    79  69  71 CALM      30.05R
TEKAMAH        CLEAR     72  69  90 S5        30.04R
WAYNE          CLEAR     75  67  78 CALM      30.05S
$$

NEZ050>053-065>068-078-088>093-010300-
SOUTHEAST NEBRASKA

CITY           SKY/WX    TMP DP  RH WIND       PRES   REMARKS
LINCOLN        CLOUDY    76  63  64 E6        30.05R
OMAHA EPPLEY   MOCLDY    79  74  84 N6        30.03R
BEATRICE       CLOUDY    77  66  69 S8        30.02F
FALLS CITY     MOCLDY    82  74  76 SW6       30.04R
NEBRASKA CITY  LGT RAIN  71  63  76 S10       30.05F
PLATTSMOUTH    CLOUDY    75  65  71 S12       30.05R
$$

NEZ044-045-051>053-067-010300-
OMAHA AREA

CITY           SKY/WX    TMP DP  RH WIND       PRES   REMARKS
OMAHA EPPLEY   MOCLDY    79  74  84 N6        30.03R
BLAIR          PTCLDY    77  71  83 NW6       30.05R
FREMONT        PTCLDY    79  69  71 CALM      30.05R
MILLARD        MOCLDY    81  73  77 E3        30.03R
OFFUTT AFB     MOCLDY    76  68  76 CALM      30.03R
PLATTSMOUTH    CLOUDY    75  65  71 S12       30.05R
WAHOO          FAIR      75  70  85 CALM      30.04S
$$


USA.gov is the U.S. government's official web portal to all federal, state and local government web resources and services.